Weather History for Menominee, MI

Change the Weather History Date:

Thursday, April 5, 2012

  Actual Average Record
Temperature  
Mean Temperature 35 °F -  
Max Temperature 42 °F 48 °F 62 °F (1951)
Min Temperature 28 °F 28 °F 12 °F (1975)
Degree Days  
Heating Degree Days 30    
Moisture  
Dew Point 25 °F    
Average Humidity 66    
Maximum Humidity 93    
Minimum Humidity 42    
Precipitation  
Precipitation 0.00 in - - ()
Sea Level Pressure  
Sea Level Pressure 30.17 in    
Wind  
Wind Speed 8 mph (ENE)    
Max Wind Speed 17 mph    
Max Gust Speed 24 mph    
Visibility 10 miles    
Events      
Averages and records for this station are not official NWS values.
T = Trace of Precipitation, MM = Missing Value Source: NWS Daily Summary

Daily Weather History Graph

Daily Weather History Graph

Search for Another Location

Airport:

Trip Planner

Search our weather history database for the weather conditions in past years. The results will help you decide how hot, cold, wet, or windy it might be!

Date:

Astronomy

Apr. 05, 2012 Rise Set
Actual Time 6:22 AM CDT 7:24 PM CDT
Civil Twilight 5:52 AM CDT 7:54 PM CDT
Nautical Twilight 5:16 AM CDT 8:30 PM CDT
Astronomical Twilight 4:39 AM CDT 9:08 PM CDT
Moon 6:29 PM CDT (4/5) 5:21 AM CDT (4/5)
Length of Visible Light 14h 01m
Length of Day
13h 01m
Waxing Gibbous, 98% of the Moon is Illuminated
Apr 5
Waxing Gibbous
Apr 6
Full
Apr 13
Last Quarter
Apr 21
New
Apr 29
First Quarter

Hourly Weather History & Observations

Time (CDT) Temp. Windchill Dew Point Humidity Pressure Visibility Wind Dir Wind Speed Gust Speed Precip Events Conditions
12:15 AM 33.8 °F 27.7 °F 24.8 °F 70% 30.11 in 10.0 mi NNE 6.9 mph - N/A   Clear
12:35 AM 33.8 °F 29.6 °F 24.8 °F 70% 30.11 in 10.0 mi NNE 4.6 mph - N/A   Clear
12:55 AM 33.8 °F 28.6 °F 24.8 °F 70% 30.11 in 10.0 mi NNE 5.8 mph - N/A   Clear
1:15 AM 32.0 °F 28.7 °F 24.8 °F 75% 30.11 in 10.0 mi North 3.5 mph - N/A   Clear
1:35 AM 32.0 °F 26.4 °F 24.8 °F 75% 30.10 in 10.0 mi North 5.8 mph - N/A   Clear
1:55 AM 30.2 °F 25.4 °F 24.8 °F 80% 30.11 in 10.0 mi North 4.6 mph - N/A   Clear
2:15 AM 30.2 °F 24.3 °F 24.8 °F 80% 30.10 in 10.0 mi NNE 5.8 mph - N/A   Clear
2:55 AM 30.2 °F 24.3 °F 26.6 °F 86% 30.11 in 10.0 mi North 5.8 mph - N/A   Clear
3:15 AM 30.2 °F 24.3 °F 26.6 °F 86% 30.10 in 10.0 mi North 5.8 mph - N/A   Clear
3:35 AM 30.2 °F 24.3 °F 26.6 °F 86% 30.11 in 10.0 mi North 5.8 mph - N/A   Clear
3:55 AM 30.2 °F 25.4 °F 26.6 °F 86% 30.11 in 10.0 mi NNE 4.6 mph - N/A   Mostly Cloudy
4:15 AM 30.2 °F 23.4 °F 26.6 °F 86% 30.11 in 10.0 mi North 6.9 mph - N/A   Mostly Cloudy
4:35 AM 30.2 °F 23.4 °F 26.6 °F 86% 30.12 in 10.0 mi North 6.9 mph - N/A   Mostly Cloudy
4:55 AM 30.2 °F 23.4 °F 26.6 °F 86% 30.12 in 10.0 mi North 6.9 mph - N/A   Overcast
5:15 AM 30.2 °F 24.3 °F 26.6 °F 86% 30.13 in 10.0 mi North 5.8 mph - N/A   Overcast
5:35 AM 30.2 °F 24.3 °F 26.6 °F 86% 30.14 in 10.0 mi North 5.8 mph - N/A   Overcast
5:55 AM 28.4 °F 21.2 °F 26.6 °F 93% 30.15 in 10.0 mi North 6.9 mph - N/A   Overcast
6:15 AM 28.4 °F 21.2 °F 26.6 °F 93% 30.16 in 10.0 mi North 6.9 mph - N/A   Scattered Clouds
6:35 AM 28.4 °F 21.2 °F 24.8 °F 86% 30.16 in 10.0 mi North 6.9 mph - N/A   Clear
6:55 AM 28.4 °F 22.2 °F 24.8 °F 86% 30.17 in 10.0 mi North 5.8 mph - N/A   Clear
7:15 AM 28.4 °F 21.2 °F 24.8 °F 86% 30.18 in 10.0 mi NNE 6.9 mph - N/A   Clear
7:35 AM 30.2 °F 22.6 °F 24.8 °F 80% 30.18 in 10.0 mi NNE 8.1 mph - N/A   Clear
7:55 AM 32.0 °F 25.6 °F 26.6 °F 80% 30.19 in 10.0 mi NNE 6.9 mph - N/A   Clear
8:15 AM 33.8 °F 25.3 °F 24.8 °F 70% 30.20 in 10.0 mi NE 11.5 mph - N/A   Clear
8:35 AM 35.6 °F 28.0 °F 24.8 °F 65% 30.20 in 10.0 mi NE 10.4 mph 17.3 mph N/A   Clear
8:55 AM 35.6 °F 27.5 °F 24.8 °F 65% 30.21 in 10.0 mi ENE 11.5 mph 20.7 mph N/A   Scattered Clouds
9:15 AM 35.6 °F 28.6 °F 24.8 °F 65% 30.21 in 10.0 mi NE 9.2 mph 19.6 mph N/A   Mostly Cloudy
9:35 AM 37.4 °F 27.8 °F 24.8 °F 60% 30.22 in 10.0 mi East 17.3 mph 24.2 mph N/A   Mostly Cloudy
9:55 AM 37.4 °F 27.8 °F 24.8 °F 60% 30.22 in 10.0 mi ENE 17.3 mph - N/A   Partly Cloudy
10:15 AM 37.4 °F 27.8 °F 23.0 °F 56% 30.22 in 10.0 mi East 17.3 mph - N/A   Clear
10:35 AM 37.4 °F 28.5 °F 23.0 °F 56% 30.22 in 10.0 mi ENE 15.0 mph 20.7 mph N/A   Clear
10:55 AM 37.4 °F 28.5 °F 24.8 °F 60% 30.23 in 10.0 mi East 15.0 mph 20.7 mph N/A   Clear
11:15 AM 37.4 °F 28.5 °F 26.6 °F 65% 30.23 in 10.0 mi East 15.0 mph - N/A   Clear
11:35 AM 37.4 °F 28.9 °F 23.0 °F 56% 30.23 in 10.0 mi East 13.8 mph - N/A   Clear
11:55 AM 37.4 °F 28.9 °F 24.8 °F 60% 30.22 in 10.0 mi East 13.8 mph - N/A   Clear
12:15 PM 37.4 °F 30.3 °F 23.0 °F 56% 30.22 in 10.0 mi East 10.4 mph - N/A   Clear
12:35 PM 37.4 °F 29.3 °F 21.2 °F 52% 30.22 in 10.0 mi ESE 12.7 mph - N/A   Clear
12:55 PM 39.2 °F 31.6 °F 21.2 °F 49% 30.20 in 10.0 mi ESE 12.7 mph - N/A   Clear
1:15 PM 39.2 °F 32.5 °F 23.0 °F 52% 30.20 in 10.0 mi SE 10.4 mph - N/A   Clear
1:35 PM 39.2 °F 32.5 °F 23.0 °F 52% 30.20 in 10.0 mi ESE 10.4 mph - N/A   Clear
1:55 PM 39.2 °F 33.0 °F 24.8 °F 56% 30.19 in 10.0 mi SE 9.2 mph - N/A   Clear
2:15 PM 39.2 °F 32.5 °F 24.8 °F 56% 30.19 in 10.0 mi ESE 10.4 mph - N/A   Clear
2:35 PM 41.0 °F 34.3 °F 24.8 °F 53% 30.18 in 10.0 mi ESE 11.5 mph - N/A   Clear
2:55 PM 41.0 °F 34.7 °F 24.8 °F 53% 30.18 in 10.0 mi ESE 10.4 mph - N/A   Clear
3:15 PM 41.0 °F 36.4 °F 24.8 °F 53% 30.18 in 10.0 mi SE 6.9 mph - N/A   Clear
3:35 PM 42.8 °F 38.0 °F 24.8 °F 49% 30.18 in 10.0 mi ESE 8.1 mph - N/A   Clear
3:55 PM 42.8 °F 37.5 °F 24.8 °F 49% 30.17 in 10.0 mi SE 9.2 mph - N/A   Clear
4:15 PM 42.8 °F 36.6 °F 24.8 °F 49% 30.18 in 10.0 mi East 11.5 mph - N/A   Clear
4:35 PM 42.8 °F 36.2 °F 23.0 °F 46% 30.17 in 10.0 mi East 12.7 mph - N/A   Clear
4:55 PM 42.8 °F 36.6 °F 21.2 °F 42% 30.17 in 10.0 mi East 11.5 mph 19.6 mph N/A   Clear
5:15 PM 42.8 °F 35.8 °F 21.2 °F 42% 30.17 in 10.0 mi East 13.8 mph 18.4 mph N/A   Clear
5:35 PM 42.8 °F 35.4 °F 21.2 °F 42% 30.17 in 10.0 mi ENE 15.0 mph 19.6 mph N/A   Clear
5:55 PM 42.8 °F 36.2 °F 24.8 °F 49% 30.18 in 10.0 mi East 12.7 mph 18.4 mph N/A   Clear
6:15 PM 41.0 °F 33.1 °F 26.6 °F 57% 30.19 in 10.0 mi East 15.0 mph 20.7 mph N/A   Clear
6:35 PM 41.0 °F 33.1 °F 24.8 °F 53% 30.19 in 10.0 mi ENE 15.0 mph 20.7 mph N/A   Clear
6:55 PM 39.2 °F 31.6 °F 26.6 °F 61% 30.20 in 10.0 mi ENE 12.7 mph - N/A   Clear
7:15 PM 39.2 °F 33.0 °F 26.6 °F 61% 30.20 in 10.0 mi East 9.2 mph - N/A   Clear
7:35 PM 39.2 °F 32.5 °F 26.6 °F 61% 30.21 in 10.0 mi ENE 10.4 mph - N/A   Clear
7:55 PM 39.2 °F 31.6 °F 24.8 °F 56% 30.21 in 10.0 mi ENE 12.7 mph - N/A   Clear
8:15 PM 39.2 °F 33.0 °F 26.6 °F 61% 30.22 in 10.0 mi ENE 9.2 mph - N/A   Clear
8:35 PM 37.4 °F 30.3 °F 26.6 °F 65% 30.22 in 10.0 mi ENE 10.4 mph - N/A   Clear
8:55 PM 37.4 °F 30.8 °F 24.8 °F 60% 30.23 in 10.0 mi NE 9.2 mph - N/A   Clear
9:15 PM 35.6 °F 28.6 °F 24.8 °F 65% 30.24 in 10.0 mi NE 9.2 mph - N/A   Clear
9:35 PM 35.6 °F 28.6 °F 23.0 °F 60% 30.24 in 10.0 mi NE 9.2 mph - N/A   Clear
9:55 PM 35.6 °F 27.5 °F 21.2 °F 56% 30.24 in 10.0 mi NE 11.5 mph 16.1 mph N/A   Clear
10:15 PM 33.8 °F 26.4 °F 19.4 °F 56% 30.25 in 10.0 mi NE 9.2 mph - N/A   Clear
10:35 PM 33.8 °F 27.7 °F 19.4 °F 56% 30.26 in 10.0 mi NE 6.9 mph - N/A   Clear
10:55 PM 33.8 °F 27.0 °F 19.4 °F 56% 30.26 in 10.0 mi NE 8.1 mph - N/A   Clear
11:15 PM 32.0 °F 26.4 °F 19.4 °F 60% 30.26 in 10.0 mi NNE 5.8 mph - N/A   Clear
11:35 PM 30.2 °F 22.6 °F 17.6 °F 60% 30.26 in 10.0 mi NNE 8.1 mph - N/A   Clear
11:55 PM 30.2 °F 22.6 °F 19.4 °F 64% 30.26 in 10.0 mi NNE 8.1 mph - N/A   Clear